Location: ??????
(55.7522°N, 37.6156°E)
Time: 17:46:03
(UTC+00:00)

SeaSat 1 - Pass Details

Date: 14 June 2025
Orbit: 738 x 740 km, 108.0° (Epoch: 13 July)

Event Time Altitude Azimuth Distance (km) Brightness Sun altitude
Exits shadow 20:18:19 - 127° (SE) 2,573 4.7 -9.5°
Reaches altitude 10° 20:19:08 10° 126° (SE) 2,248 4.5 -9.5°
Maximum altitude 20:23:55 57° 48° (NE) 870 3.0 -9.7°
Drops below altitude 10° 20:28:44 10° 331° (NNW) 2,261 6.4 -9.9°
Sets 20:31:01 0° 327° (NNW) 3,188 7.3 -10.0°
